This is the latest recevied weather packets stored in our database for station/object IW4CYE-7. If no packets are shown the sender has not sent any weather packets the latest 10 day(s).
| Time | Temp. | Humidity | Pressure | Rain* | Wind** | Luminosity | Snow |
|---|---|---|---|---|---|---|---|
| 1788010641 | 34.44° C | 35% | 1001.7 hPa | 0 mm | - | - | - |
| 1788010041 | 34.44° C | 35% | 1001.4 hPa | 0 mm | - | - | - |
| 1788009441 | 34.44° C | 37% | 1001.4 hPa | 0 mm | - | - | - |
| 1788008841 | 34.44° C | 36% | 1001.7 hPa | 0 mm | - | - | - |
| 1788008241 | 33.33° C | 38% | 1002 hPa | 0 mm | - | - | - |
| 1788007641 | 34.44° C | 37% | 1002 hPa | 0 mm | - | - | - |
| 1788007041 | 33.33° C | 37% | 1002 hPa | 0 mm | - | - | - |
| 1788006441 | 34.44° C | 35% | 1002 hPa | 0 mm | - | - | - |
| 1788005841 | 33.33° C | 37% | 1002 hPa | 0 mm | - | - | - |
| 1788005241 | 33.33° C | 36% | 1002 hPa | 0 mm | - | - | - |
| 1788004641 | 33.33° C | 37% | 1002.4 hPa | 0 mm | - | - | - |
| 1788004041 | 33.33° C | 38% | 1002.4 hPa | 0 mm | - | - | - |
| 1788003441 | 33.33° C | 38% | 1002.4 hPa | 0 mm | - | - | - |
| 1788002841 | 33.33° C | 36% | 1002.4 hPa | 0 mm | - | - | - |
| 1788002241 | 33.33° C | 36% | 1002.7 hPa | 0 mm | - | - | - |
| 1788001641 | 32.78° C | 38% | 1002.7 hPa | 0 mm | - | - | - |
| 1788001041 | 33.33° C | 35% | 1003 hPa | 0 mm | - | - | - |
| 1788000441 | 32.78° C | 36% | 1003 hPa | 0 mm | - | - | - |
| 1787999841 | 32.22° C | 38% | 1003 hPa | 0 mm | - | - | - |
| 1787999241 | 32.78° C | 38% | 1003 hPa | 0 mm | - | - | - |
| 1787998641 | 32.22° C | 36% | 1003 hPa | 0 mm | - | - | - |
| 1787998041 | 31.67° C | 40% | 1003.4 hPa | 0 mm | - | - | - |
| 1787997442 | 31.67° C | 40% | 1003.4 hPa | 0 mm | - | - | - |
| 1787996842 | 30.56° C | 40% | 1003.7 hPa | 0 mm | - | - | - |
| 1787996242 | 30° C | 47% | 1003.4 hPa | 0 mm | - | - | - |
* Rain latest hour (hover to see other rain measurements)
** Current wind speed in m/s (hover to see current wind gust speed)